Sexton Summit, OR

3:50 AM PDT on October 16, 2019 (GMT -0700)
Sexton Summit

Weather History for KSXT - August, 2019

Change the Weather History Date:

Tuesday, August 6, 2019

  Actual Average Record
Temperature  
Mean Temperature 72 °F -  
Max Temperature 84 °F 76 °F 84 °F (2005)
Min Temperature 61 °F 53 °F 41 °F (2002)
Cooling Degree Days 6    
Growing Degree Days 22 (Base 50)    
Moisture  
Dew Point 55 °F    
Average Humidity 61    
Maximum Humidity 78    
Minimum Humidity 41    
Precipitation  
Precipitation 0.00 in - - ()
Sea Level Pressure  
Sea Level Pressure 29.90 in    
Wind  
Wind Speed 3 mph (NNW)    
Max Wind Speed 12 mph    
Max Gust Speed 17 mph    
Visibility 10 miles    
Events      
Averages and records for this station are not official NWS values.
T = Trace of Precipitation, MM = Missing Value Source: NWS Daily Summary

Daily Weather History Graph

Daily Weather History Graph

Search for Another Location

Airport or City:

Astronomy

Aug. 06, 2019 Rise Set
Actual Time 6:10 AM PDT 8:27 PM PDT
Civil Twilight 5:39 AM PDT 8:58 PM PDT
Nautical Twilight 5:00 AM PDT 9:37 PM PDT
Astronomical Twilight 4:16 AM PDT 10:20 PM PDT
Moon 12:50 PM PDT (8/6) No Moon Set
Length of Visible Light 15h 19m
Length of Day
14h 17m
Waxing Crescent, 40% of the Moon is Illuminated
Aug 6
Waxing Crescent
Aug 7
First Quarter
Aug 15
Full
Aug 23
Last Quarter
Aug 30
New

Hourly Weather History & Observations

Time (PDT) Temp. Heat Index Dew Point Humidity Pressure Visibility Wind Dir Wind Speed Gust Speed Precip Events Conditions
12:56 AM 66.9 °F - 54.0 °F 63% 29.91 in 10.0 mi North 3.5 mph - N/A   Clear
1:56 AM 64.9 °F - 55.0 °F 70% 29.90 in 10.0 mi Calm Calm - N/A   Clear
2:56 AM 62.1 °F - 54.0 °F 75% 29.89 in 10.0 mi SW 3.5 mph - N/A   Clear
3:56 AM 66.0 °F - 53.1 °F 63% 29.88 in 10.0 mi Calm Calm - N/A   Clear
4:56 AM 66.0 °F - 54.0 °F 65% 29.88 in 10.0 mi Calm Calm - N/A   Clear
5:56 AM 64.9 °F - 54.0 °F 68% 29.89 in 10.0 mi Calm Calm - N/A   Clear
6:56 AM 61.0 °F - 54.0 °F 78% 29.91 in 10.0 mi Calm Calm - N/A   Clear
7:56 AM 63.0 °F - 55.9 °F 78% 29.92 in 10.0 mi Calm Calm - N/A   Clear
8:56 AM 66.9 °F - 55.9 °F 68% 29.93 in 10.0 mi Calm Calm - N/A   Clear
9:56 AM 70.0 °F - 55.9 °F 61% 29.93 in 9.0 mi Variable 4.6 mph - N/A   Clear
10:56 AM 73.0 °F - 57.0 °F 57% 29.91 in 10.0 mi Variable 3.5 mph - N/A   Clear
11:56 AM 72.0 °F - 57.0 °F 59% 29.92 in 10.0 mi Variable 3.5 mph - N/A   Clear
12:56 PM 78.1 °F - 59.0 °F 52% 29.90 in 10.0 mi Variable 3.5 mph - N/A   Clear
1:56 PM 78.1 °F - 55.0 °F 45% 29.90 in 10.0 mi Variable 4.6 mph - N/A   Clear
2:56 PM 80.1 °F 80.2 °F 55.9 °F 43% 29.89 in 10.0 mi Variable 5.8 mph - N/A   Clear
3:56 PM 82.9 °F 82.4 °F 57.0 °F 41% 29.86 in 10.0 mi Variable 3.5 mph - N/A   Clear
4:56 PM 82.9 °F 82.4 °F 57.0 °F 41% 29.84 in 10.0 mi Calm Calm - N/A   Clear
5:56 PM 79.0 °F - 57.9 °F 48% 29.86 in 10.0 mi Calm Calm - N/A   Clear
6:56 PM 73.9 °F - 57.0 °F 55% 29.87 in 10.0 mi NNW 6.9 mph - N/A   Clear
7:56 PM 69.1 °F - 55.9 °F 63% 29.90 in 10.0 mi NNW 8.1 mph 17.3 mph N/A   Clear
8:56 PM 66.0 °F - 55.9 °F 70% 29.90 in 10.0 mi NNW 11.5 mph - N/A   Clear
9:56 PM 64.9 °F - 54.0 °F 68% 29.91 in 10.0 mi NNW 8.1 mph - N/A   Clear
10:56 PM 64.0 °F - 53.1 °F 67% 29.90 in 10.0 mi NNW 8.1 mph - N/A   Clear
11:56 PM 64.9 °F - 51.1 °F 61% 29.90 in 10.0 mi NNW 4.6 mph - N/A   Clear